Tracking 19176 objects as of 26-May-2018
HD Live streaming from Space Station
objects crossing your sky now

COSMOS 2416

Track COSMOS 2416 now!
10-day predictions
COSMOS 2416 is classified as:


NORAD ID: 28908
Int'l Code: 2005-048A
Perigee: 1,443.9 km
Apogee: 1,453.6 km
Inclination: 82.5 °
Period: 114.7 minutes
Semi major axis: 7819 km
RCS: 1.597 m2 (large)
Launch date: December 21, 2005
Source: Commonwealth of Independent States (former USSR) (CIS)
Launch site: PLESETSK MISSILE AND SPACE COMPLEX (PKMTR)
aabbcc
Your satellite tracking list
Your tracking list is empty




NASA's NSSDC Master Catalog

Two Line Element Set (TLE):
1 28908U 05048A   18146.18286792  .00000016  00000-0  35042-4 0  9992
2 28908  82.4713  30.0452 0006223 265.1982 252.7986 12.55486127569464
Source of the keplerian elements: AFSPC